ASTRA 2E

Last updated on Sun Jun 21 2026 00:03:05 GMT+0000 (Coordinated Universal Time)

1 39285U 13056A 26171.32634806 .00000146 00000+0 00000+0 0 9990 2 39285 0.0717 317.8743 0002790 144.5096 312.1587 1.00274051 46449
UTC large
Height (km)
Speed (km/s)
/
Latitude / Longitude
Inclination (degrees)
Orbital Period (minutes)
Azimuth
Elevation
Range (km)
Doppler Factor

Next 0 passes for location: London (51.5072 / 0.1276)

No passes found over London.
ASTRA 2E